Погода в Мангуше

Украина / Донецкая область     47°03′24″N   37°18′28″E
темп.,
°C
ветер,
м/с
пор.,
м/с
влажн.,
%
обл.,
%
осадки,
мм/ч
давл.,
гПа
погр.,
м
4 марта, чт
чт423:00+1з33730 0.0 102642
02:00+1з33710 0.0 102660
05:000зюз34720 0.0 102590
08:00+2зюз58650 0.0 1024380
11:00+6зюз710540 0.0 1022878
14:00+7юз912610 0.0 1020923
17:00+5юз713660 0.0 1017617
20:00+5юз8157922 0.0 1017450
5 марта, пт
пт523:00+4юз8167667 0.0 1016543
02:00+3юз7158033 0.0 1015548
05:00+3юз7148525 0.0 1014500
08:00+4юз7128241 0.0 1014556
11:00+6юз71076100 0.0 1014606
14:00+8юз8127199 0.0 1013754
17:00+6ююз7137871 0.0 1012482
20:00+6юз8168486 0.0 1012411
6 марта, сб
сб623:00+5юз61291100 0.0 1012288
02:00+4зюз4592100 0.0 1013100
05:00+5сз4892100 0.8 1014371
08:00+3сз5786100 1.3 1016527
11:00+4ссз7969100 0.1 1017693
14:00+4ссз6855100 0.1 10171098
17:00+3сз6947100 0.0 10191309
20:000ссз81246100 0.0 10221132
7 марта, вс
вс723:00−1сз611480 0.0 10241389
02:00−2сз69490 0.0 10251145
05:00−2сз59520 0.0 1026872
08:00−1зсз57450 0.0 1027974
11:00+2з57350 0.0 10261297
14:00+3зюз79400 0.0 10231463
17:00+2юз710520 0.0 1021737
20:00+1зюз814610 0.0 1020629
8 марта, пн
пн823:000зюз814590 0.0 1019606
02:00+1зюз815658 0.0 1017739
05:000зюз7157388 0.0 1016516
08:00+2з8126670 0.0 1016676
11:00+6зюз8124767 0.0 10151657
14:00+7зюз8125080 0.0 10141826
17:00+5зюз5958100 0.1 1014523
20:00+3зсз4967100 0.1 1015576